{"data":{"norad_id":59132,"epoch":"2026-09-22T14:56:09.525408Z","epoch_age_seconds":74582,"freshness":"FRESH","line1":"1 59132U 24043AL  26265.62233247  .00002965  00000+0  11106-3 0  9996","line2":"2 59132  97.5770  42.9111 0009099 260.9018  99.1192 15.28072003141812","mean_motion":15.28072003,"eccentricity":0.0009099,"inclination_deg":97.577,"raan_deg":42.9111,"arg_perigee_deg":260.9018,"mean_anomaly_deg":99.1192,"bstar":0.00011106,"rev_number":14181,"period_min":94.236397052816,"perigee_km":475.33460427048,"apogee_km":487.81791045623,"semimajor_km":6859.7132573634,"source":"CELESTRAK","updated_at":"2026-09-23T09:00:19.180592Z"}}